[[{"header":{"parameterUnit":"m.s-1","parameterCategory":1,"la1":30.2991,"la2":30.254,"lo1":-89.0895,"lo2":-89.0444,"dy":0.0017,"dx":0.0017,"nx":28,"ny":28,"refTime":"2024-08-25T03:00:00:Z","depth":0,"parameterNumber":2,"parameterNumberName":"U-component_of_WINDS"},"data":[0,0,0,0,0,0,0,0,0,0,0,0,0,0,0,0,0,0,0,0,0,0,0,0,0,0,0,0,0,0,0,0,0,0,0,0,0,0,0,0,0,0,0,0,0,0,0,0,0,0,0,0,0,0,0,0,0,0,-0.925,-0.9249,0,-0.9193,-0.9192,-0.9192,-0.9123,-0.9122,-0.9121,-0.9119,-0.9063,-0.9063,-0.9062,0,0,0,0,0,0,0,0,0,0,0,0,0,-0.9303,-0.9303,-0.925,-0.9249,-0.9248,-0.9193,-0.9192,-0.9191,-0.9123,-0.9122,-0.912,-0.9119,-0.9063,-0.9063,-0.9062,0,0,0,0,0,0,0,0,0,0,0,0,0,-0.9267,-0.9303,-0.925,-0.9207,-0.9203,-0.9193,-0.9192,-0.9191,-0.9123,-0.9122,-0.912,-0.9118,-0.9063,-0.9063,-0.9062,-0.909,0,0,-0.906,-0.9059,0,0,0,0,0,0,0,0,-0.9269,-0.9265,-0.9214,-0.921,-0.9205,-0.9163,-0.919,-0.9157,-0.9124,-0.9154,-0.9119,-0.9118,-0.9098,-0.9094,-0.9087,-0.9087,-0.9084,-0.906,-0.9059,-0.9059,-0.9059,0,0,0,0,0,0,0,-0.9272,-0.9267,-0.9227,-0.9214,-0.9208,-0.9193,-0.9186,-0.9184,-0.9135,-0.9151,-0.9146,-0.914,-0.9095,-0.9088,-0.9085,-0.9084,-0.906,-0.9059,-0.9058,-0.9058,-0.9108,-0.911,0,0,0,0,0,0,-0.928,-0.9269,-0.9229,-0.9226,-0.9234,-0.9193,-0.9185,-0.9178,-0.9135,-0.9127,-0.9141,-0.9137,-0.909,-0.9086,-0.9083,-0.9115,-0.9059,-0.9058,-0.9058,-0.9107,-0.9109,-0.9111,0,0,0,0,0,0,-0.9281,-0.9277,-0.9231,-0.9246,-0.9239,-0.9194,-0.9187,-0.9178,-0.9171,-0.9128,-0.9119,-0.9143,-0.9089,-0.9084,-0.9089,-0.9112,-0.9058,-0.9057,-0.9104,-0.9107,-0.911,-0.9179,0,0,0,0,0,0,-0.9283,-0.9278,-0.9287,-0.9247,-0.9239,-0.9238,-0.9188,-0.9178,-0.917,-0.9163,-0.9127,-0.9119,-0.9087,-0.9091,-0.9089,-0.911,-0.9056,-0.9102,-0.9106,-0.9109,-0.9175,-0.9184,-0.9192,0,0,0,0,0,-0.9285,-0.9308,-0.9287,-0.9283,-0.9248,-0.9239,-0.9234,-0.9196,-0.9172,-0.9181,-0.9154,-0.9121,-0.911,-0.9092,-0.9089,-0.9111,-0.9101,-0.9105,-0.9109,-0.9171,-0.9182,-0.9192,0,0,0,0,0,0,-0.9351,-0.9302,-0.9278,-0.9288,-0.9269,-0.9227,-0.9238,-0.9208,-0.9195,-0.919,-0.9143,-0.9136,-0.9148,-0.9129,-0.911,-0.9138,-0.9101,-0.9104,-0.9149,-0.916,-0.9168,-0.9173,-0.9056,0,0,0,0,0,-0.9367,-0.9362,-0.932,-0.9333,-0.9324,-0.9283,-0.9277,-0.925,-0.9228,-0.9219,-0.9192,-0.9172,-0.9165,-0.9161,-0.9151,-0.9172,-0.9165,-0.9186,-0.9194,-0.9202,-0.9206,-0.9219,-0.9229,-0.9124,-0.9124,-0.9124,0,0,-0.9399,-0.9372,-0.9372,-0.9346,-0.9327,-0.9325,-0.9276,-0.9275,-0.9274,-0.9219,-0.9223,-0.9203,-0.9178,-0.9192,-0.9197,-0.9177,-0.9233,-0.9207,-0.9213,-0.9213,-0.9224,-0.9234,-0.9243,-0.9127,-0.9126,-0.9126,0,0,-0.9458,-0.9435,-0.9446,-0.9428,-0.9401,-0.9374,-0.9377,-0.9341,-0.9326,-0.9329,-0.9289,-0.9287,-0.9275,-0.926,-0.9251,-0.9308,-0.9278,-0.9307,-0.9352,-0.9365,-0.9374,-0.9381,-0.9404,-0.9413,-0.9311,-0.9311,-0.9311,0,-0.9502,-0.9496,-0.9455,-0.9457,-0.9449,-0.9399,-0.9411,-0.9396,-0.9368,-0.9364,-0.9342,-0.9328,-0.9307,-0.9319,-0.9334,-0.9327,-0.9331,-0.9311,-0.9376,-0.9382,-0.9389,-0.9411,-0.9419,-0.9315,-0.9314,-0.9314,-0.9313,0,-0.9553,-0.955,-0.9562,-0.9537,-0.9529,-0.9536,-0.9498,-0.9496,-0.947,-0.9446,-0.9453,-0.9427,-0.9413,-0.9414,-0.9388,-0.9423,-0.9412,-0.9384,-0.9346,-0.9403,-0.9423,-0.9431,-0.932,-0.9319,-0.9318,-0.9317,0,0,-0.965,-0.9604,-0.9609,-0.9598,-0.9566,-0.9564,-0.9571,-0.9557,-0.9558,-0.9541,-0.9547,-0.9539,-0.9514,-0.9504,-0.9476,-0.9488,-0.954,-0.9458,-0.9457,-0.9477,-0.9581,-0.9604,-0.9614,-0.9519,-0.9521,-0.9522,-0.9584,0,-0.9704,-0.9712,-0.9676,-0.9694,-0.9693,-0.9648,-0.9654,-0.9637,-0.9615,-0.9613,-0.959,-0.9586,-0.9551,-0.9546,-0.9555,-0.9531,-0.956,-0.9526,-0.9527,-0.9528,-0.9536,-0.9624,-0.9647,-0.9707,-0.9591,-0.9593,-0.9593,0,-0.9767,-0.9755,-0.9773,-0.9744,-0.9742,-0.9748,-0.9736,-0.9733,-0.9713,-0.9697,-0.9688,-0.9657,-0.9664,-0.9628,-0.9638,-0.9616,-0.9615,-0.9604,-0.9605,-0.9605,-0.9565,-0.9629,-0.9725,-0.9735,-0.9605,-0.9604,-0.9603,0,-0.984,-0.9828,-0.9838,-0.983,-0.9795,-0.9801,-0.9787,-0.9766,-0.9761,-0.9751,-0.9748,-0.9738,-0.9734,-0.9728,-0.9696,-0.9672,-0.9712,-0.9672,-0.9702,-0.9703,-0.9713,-0.9713,-0.9813,-0.9709,-0.9709,-0.9709,-0.9708,0,-0.9905,-0.9919,-0.987,-0.9877,-0.9892,-0.9852,-0.9869,-0.985,-0.9833,-0.9837,-0.9796,-0.9801,-0.9758,-0.9759,-0.9735,-0.9749,-0.9747,-0.9736,-0.973,-0.9741,-0.9742,-0.974,-0.9736,-0.9711,-0.971,-0.971,-0.971,0,-0.9988,-0.9956,-0.9965,-0.9932,-0.9924,-0.9937,-0.991,-0.9916,-0.9894,-0.9899,-0.9898,-0.9863,-0.9863,-0.9831,-0.9823,-0.9807,-0.9833,-0.9817,-0.9839,-0.9835,-0.9868,-0.9866,-0.9971,-0.9984,-0.987,-0.9871,-0.9872,0,-1.0033,-1.0042,-1.0012,-1.0011,-1.0,-0.9999,-0.9995,-0.9958,-0.9956,-0.9937,-0.9946,-0.9942,-0.9937,-0.9939,-0.9914,-0.9909,-0.9895,-0.9932,-0.9893,-0.9906,-0.9898,-0.9899,-0.9901,-0.994,-0.9942,-0.9943,-0.9944,0,-1.0116,-1.0101,-1.0096,-1.0087,-1.0084,-1.0075,-1.0064,-1.0066,-1.0026,-1.0026,-1.0025,-1.0021,-1.0015,-1.0013,-1.0004,-0.9991,-0.9962,-0.9956,-0.9963,-0.9975,-0.9989,-0.9985,-0.9864,-0.9954,-0.9953,-0.9952,-0.9952,-0.9951,-1.0183,-1.0191,-1.0172,-1.0169,-1.0157,-1.0148,-1.0154,-1.0133,-1.0131,-1.0123,-1.0101,-1.0105,-1.0089,-1.0074,-1.0064,-1.0068,-1.005,-1.0059,-1.0062,-1.0065,-1.0073,-0.9987,-1.0066,-1.0066,-1.0065,-1.0065,-1.0065,0,-1.0267,-1.0253,-1.0251,-1.0237,-1.0236,-1.0208,-1.0196,-1.0197,-1.0201,-1.0188,-1.0185,-1.0186,-1.0185,-1.0161,-1.0157,-1.0165,-1.0152,-1.0166,-1.0166,-1.0164,-1.0088,-1.0083,-1.0177,-1.0177,-1.0177,-1.0177,-1.0177,-1.0177,-1.031,-1.0323,-1.0306,-1.0315,-1.03,-1.0304,-1.0299,-1.0292,-1.0282,-1.0286,-1.0284,-1.0269,-1.0253,-1.0248,-1.0247,-1.024,-1.0242,-1.0261,-1.025,-1.018,-1.0169,-1.0159,-1.0154,-1.0261,-1.0261,-1.0326,-1.0327,-1.0327]},{"header":{"parameterUnit":"m.s-1","parameterCategory":1,"la1":30.2991,"la2":30.254,"lo1":-89.0895,"lo2":-89.0444,"dy":0.0017,"dx":0.0017,"nx":28,"ny":28,"refTime":"2024-08-25T03:00:00:Z","depth":0,"parameterNumber":3,"parameterNumberName":"V-component_of_WINDS"},"data":[0,0,0,0,0,0,0,0,0,0,0,0,0,0,0,0,0,0,0,0,0,0,0,0,0,0,0,0,0,0,0,0,0,0,0,0,0,0,0,0,0,0,0,0,0,0,0,0,0,0,0,0,0,0,0,0,0,0,2.7078,2.7078,0,2.7137,2.7137,2.7138,2.7183,2.7184,2.7184,2.7185,2.7241,2.7242,2.7243,0,0,0,0,0,0,0,0,0,0,0,0,0,2.6999,2.7,2.7077,2.7078,2.7079,2.7136,2.7137,2.7138,2.7183,2.7184,2.7184,2.7185,2.724,2.7242,2.7243,0,0,0,0,0,0,0,0,0,0,0,0,0,2.7043,2.7001,2.7077,2.7109,2.7112,2.7136,2.7137,2.7138,2.7183,2.7184,2.7184,2.7185,2.724,2.7242,2.7243,2.724,0,0,2.7248,2.7249,0,0,0,0,0,0,0,0,2.704,2.7046,2.7103,2.7106,2.711,2.7153,2.713,2.7172,2.7183,2.7156,2.7185,2.7185,2.7211,2.7215,2.7224,2.7242,2.7245,2.7248,2.7249,2.725,2.725,0,0,0,0,0,0,0,2.7037,2.7043,2.7101,2.7104,2.7108,2.7118,2.7125,2.7138,2.7179,2.7158,2.7162,2.7168,2.7213,2.7223,2.7226,2.7246,2.7248,2.725,2.7251,2.7251,2.7261,2.7261,0,0,0,0,0,0,2.703,2.7041,2.7099,2.7103,2.7076,2.7119,2.7127,2.7139,2.7179,2.7186,2.7168,2.717,2.722,2.7224,2.7228,2.7225,2.725,2.7251,2.7252,2.7262,2.7261,2.7261,0,0,0,0,0,0,2.7028,2.7035,2.7096,2.7073,2.7081,2.712,2.7133,2.714,2.715,2.7186,2.7193,2.7171,2.722,2.7226,2.7236,2.7228,2.7252,2.7254,2.7263,2.7262,2.7261,2.722,0,0,0,0,0,0,2.7026,2.7034,2.7034,2.7072,2.7082,2.7105,2.7132,2.714,2.7153,2.7157,2.7191,2.7197,2.7221,2.7234,2.7238,2.723,2.7255,2.7264,2.7263,2.7261,2.7222,2.7218,2.7214,0,0,0,0,0,2.7023,2.702,2.7034,2.7041,2.7084,2.7105,2.711,2.714,2.7152,2.7152,2.7175,2.7196,2.7228,2.7234,2.724,2.7232,2.7265,2.7263,2.7261,2.7224,2.7219,2.7214,0,0,0,0,0,0,2.6979,2.7026,2.7042,2.7052,2.7074,2.7112,2.7113,2.7133,2.7151,2.7154,2.7188,2.7196,2.7202,2.7218,2.7224,2.723,2.7249,2.7248,2.7219,2.7214,2.721,2.7205,2.7256,0,0,0,0,0,2.6971,2.6985,2.7025,2.7029,2.704,2.7074,2.7084,2.7105,2.7129,2.7138,2.7162,2.7183,2.7198,2.7207,2.7223,2.7225,2.7232,2.7223,2.7219,2.7215,2.7213,2.7213,2.7209,2.7255,2.7255,2.7255,0,0,2.6953,2.6981,2.6987,2.7021,2.7041,2.7053,2.7082,2.7094,2.7103,2.714,2.7151,2.7169,2.7195,2.7201,2.7204,2.7215,2.7202,2.7213,2.721,2.721,2.7211,2.7207,2.7203,2.7254,2.7255,2.7255,0,0,2.6928,2.6951,2.6956,2.6975,2.7005,2.7028,2.7029,2.7064,2.7078,2.709,2.7117,2.7128,2.7153,2.717,2.7181,2.716,2.7179,2.7165,2.7142,2.7141,2.7138,2.7135,2.7125,2.7121,2.7163,2.7163,2.7163,0,2.6902,2.6923,2.6956,2.6966,2.6979,2.7014,2.7019,2.7035,2.7068,2.7075,2.7087,2.7119,2.7139,2.7147,2.7142,2.7151,2.7152,2.716,2.7136,2.7133,2.7131,2.7122,2.7118,2.7161,2.7161,2.7162,2.7162,0,2.6888,2.6902,2.6903,2.6935,2.6948,2.6955,2.6988,2.6997,2.7016,2.7037,2.7047,2.7072,2.7093,2.7097,2.7116,2.7108,2.7113,2.713,2.7149,2.7124,2.7116,2.7113,2.7158,2.7159,2.7159,2.716,0,0,2.6837,2.6886,2.6886,2.6899,2.6934,2.6945,2.6953,2.6974,2.698,2.7001,2.7007,2.7027,2.7042,2.7056,2.7077,2.7076,2.7055,2.7093,2.7094,2.7083,2.7045,2.7031,2.7027,2.7069,2.7068,2.7068,2.7043,0,2.6815,2.6833,2.6862,2.6869,2.6881,2.6914,2.692,2.6941,2.696,2.6972,2.6993,2.7006,2.7027,2.7034,2.7036,2.7058,2.7048,2.706,2.7072,2.7072,2.7063,2.7023,2.7008,2.6983,2.704,2.7039,2.7039,0,2.6792,2.6812,2.682,2.6852,2.6858,2.6864,2.6885,2.6896,2.692,2.6934,2.6948,2.6971,2.6978,2.6997,2.7007,2.7015,2.7021,2.7033,2.7032,2.7033,2.7053,2.702,2.6976,2.6971,2.7035,2.7035,2.7036,0,2.6751,2.6779,2.6788,2.6799,2.6837,2.684,2.6855,2.688,2.689,2.6908,2.6914,2.6932,2.6942,2.6954,2.698,2.6992,2.6986,2.7008,2.6996,2.6995,2.6992,2.6991,2.6946,2.7,2.7,2.7,2.7,0,2.6722,2.6726,2.6769,2.6774,2.6778,2.6811,2.6813,2.6832,2.6853,2.686,2.689,2.6896,2.6931,2.6941,2.6961,2.6965,2.697,2.6979,2.6984,2.6976,2.6974,2.6979,2.698,2.6999,2.6999,2.6999,2.6999,0,2.6676,2.6706,2.6717,2.6752,2.6761,2.6762,2.6791,2.6796,2.6817,2.6826,2.683,2.6862,2.6875,2.6903,2.6923,2.6937,2.6934,2.6945,2.6926,2.6929,2.6915,2.6915,2.6869,2.6864,2.6923,2.6922,2.6922,0,2.6656,2.6659,2.6694,2.6702,2.6717,2.6729,2.6739,2.6771,2.678,2.6807,2.6807,2.6823,2.6836,2.6854,2.6879,2.6894,2.6903,2.6886,2.6906,2.6896,2.69,2.6899,2.6898,2.6881,2.688,2.688,2.6879,0,2.6614,2.6628,2.6643,2.6662,2.6674,2.669,2.6708,2.6712,2.6748,2.6757,2.677,2.6781,2.6801,2.6815,2.6833,2.6848,2.6868,2.6873,2.6871,2.6861,2.6849,2.6853,2.6912,2.6874,2.6874,2.6875,2.6875,2.6875,2.6579,2.6582,2.6607,2.6622,2.6639,2.6654,2.666,2.6682,2.6694,2.6713,2.6731,2.6742,2.6764,2.6791,2.6804,2.6812,2.6822,2.682,2.6818,2.6817,2.6812,2.6849,2.6816,2.6816,2.6816,2.6816,2.6816,0,2.6537,2.6555,2.6568,2.6592,2.6602,2.6623,2.6643,2.665,2.666,2.6679,2.6691,2.6706,2.6719,2.6744,2.6759,2.676,2.677,2.6763,2.6762,2.6764,2.6803,2.6802,2.6754,2.6754,2.6754,2.6754,2.6754,2.6754,2.6516,2.6523,2.6539,2.6553,2.6571,2.6582,2.6592,2.6605,2.662,2.6635,2.6646,2.6663,2.6684,2.67,2.6712,2.6719,2.6722,2.6711,2.6721,2.6756,2.6762,2.6767,2.6767,2.6712,2.6712,2.6682,2.6681,2.6681]}]]